| time (UTC) | temp F | wind direction | speed knots | gust knots | rain 1hr in | rain 24hr in | rain mn in | humidity % | barometer mb |
| 20260904061550 | 54 | 0 | 0.0 | 2.6 | 0.01 | 0.60 | 0.60 | 94 | 1010.9 |
| 20260904054628 | 55 | 238 | 1.7 | 2.6 | 0.01 | 0.60 | 0.60 | 94 | 1011.0 |
| 20260904053053 | 55 | 224 | 0.0 | 1.7 | 0.01 | 0.60 | 0.60 | 93 | 1010.9 |
| 20260904051554 | 55 | 0 | 0.0 | 1.7 | 0.00 | 0.58 | 0.58 | 93 | 1011.1 |
| 20260904050050 | 55 | 224 | 0.0 | 0.9 | 0.00 | 0.58 | 0.58 | 93 | 1011.2 |
| 20260904044557 | 55 | 0 | 0.0 | 0.9 | 0.00 | 0.58 | 0.58 | 92 | 1011.2 |
| 20260904043103 | 55 | 123 | 0.0 | 1.7 | 0.00 | 0.58 | 0.58 | 91 | 1011.0 |
| 20260904041604 | 55 | 0 | 0.0 | 0.9 | 0.00 | 0.58 | 0.58 | 92 | 1011.1 |
| 20260904034551 | 56 | 0 | 0.0 | 0.9 | 0.00 | 0.58 | 0.58 | 90 | 1010.9 |
| 20260904033051 | 56 | 0 | 0.0 | 0.0 | 0.00 | 0.58 | 0.58 | 89 | 1010.6 |
| 20260904031605 | 56 | 0 | 0.0 | 0.9 | 0.00 | 0.58 | 0.58 | 90 | 1010.4 |
| 20260904030054 | 56 | 0 | 0.0 | 1.7 | 0.00 | 0.58 | 0.58 | 88 | 1010.3 |
| 20260904024558 | 57 | 0 | 0.0 | 0.0 | 0.01 | 0.58 | 0.58 | 87 | 1010.5 |
| 20260904023106 | 57 | 0 | 0.0 | 2.6 | 0.01 | 0.58 | 0.58 | 84 | 1010.4 |
| 20260904021558 | 58 | 0 | 0.0 | 0.0 | 0.01 | 0.58 | 0.58 | 83 | 1010.3 |
| 20260904020101 | 58 | 0 | 0.0 | 1.7 | 0.01 | 0.58 | 0.58 | 82 | 1010.4 |
| 20260904014617 | 59 | 0 | 0.0 | 1.7 | 0.00 | 0.58 | 0.58 | 81 | 1010.4 |
| 20260904013059 | 59 | 0 | 0.0 | 1.7 | 0.01 | 0.58 | 0.58 | 81 | 1010.3 |
| 20260904011556 | 59 | 43 | 0.0 | 5.2 | 0.01 | 0.58 | 0.58 | 81 | 1010.2 |
| 20260904010110 | 59 | 52 | 0.0 | 3.5 | 0.01 | 0.58 | 0.58 | 81 | 1010.1 |
| 20260904004558 | 59 | 254 | 0.0 | 2.6 | 0.02 | 0.58 | 0.58 | 82 | 1010.2 |
| 20260904003101 | 59 | 201 | 1.7 | 4.3 | 0.01 | 0.57 | 0.57 | 79 | 1010.1 |
| 20260904001556 | 60 | 168 | 0.0 | 7.0 | 0.02 | 0.57 | 0.57 | 76 | 1010.1 |
| 20260904000054 | 61 | 319 | 0.9 | 5.2 | 0.02 | 0.57 | 0.57 | 77 | 1010.2 |
| 20260903234553 | 61 | 83 | 0.9 | 6.1 | 0.02 | 0.56 | 0.56 | 77 | 1010.3 |
| 20260903233059 | 61 | 65 | 1.7 | 6.1 | 0.03 | 0.56 | 0.56 | 79 | 1010.3 |
| 20260903231557 | 60 | 30 | 0.9 | 5.2 | 0.02 | 0.55 | 0.55 | 82 | 1010.3 |
| 20260903230100 | 59 | 0 | 1.7 | 4.3 | 0.03 | 0.55 | 0.55 | 85 | 1010.3 |
| 20260903224548 | 59 | 82 | 0.9 | 4.3 | 0.03 | 0.58 | 0.54 | 83 | 1010.4 |
| 20260903223107 | 60 | 0 | 0.0 | 2.6 | 0.04 | 0.58 | 0.52 | 81 | 1010.4 |
| 20260903221555 | 61 | 0 | 0.9 | 6.1 | 0.05 | 0.58 | 0.52 | 81 | 1010.3 |
| 20260903220050 | 61 | 61 | 0.0 | 4.3 | 0.06 | 0.57 | 0.52 | 85 | 1010.3 |
| 20260903214601 | 60 | 18 | 0.9 | 7.0 | 0.05 | 0.62 | 0.50 | 92 | 1010.3 |
| 20260903213053 | 58 | 0 | 0.0 | 4.3 | 0.05 | 0.61 | 0.49 | 93 | 1010.6 |
| 20260903211607 | 58 | 0 | 0.9 | 6.1 | 0.05 | 0.60 | 0.48 | 94 | 1010.4 |
| 20260903210048 | 58 | 78 | 0.9 | 4.3 | 0.05 | 0.58 | 0.46 | 95 | 1010.3 |
| 20260903204556 | 56 | 93 | 0.0 | 2.6 | 0.05 | 0.64 | 0.45 | 96 | 1010.4 |
| 20260903203053 | 55 | 92 | 0.0 | 2.6 | 0.05 | 0.63 | 0.44 | 96 | 1010.4 |
| 20260903201551 | 54 | 0 | 0.0 | 7.8 | 0.05 | 0.61 | 0.42 | 95 | 1010.4 |
| 20260903200056 | 54 | 321 | 1.7 | 5.2 | 0.05 | 0.60 | 0.41 | 95 | 1010.4 |
| 20260903194554 | 54 | 0 | 0.0 | 1.7 | 0.04 | 0.64 | 0.40 | 94 | 1010.6 |
| 20260903193052 | 54 | 0 | 0.0 | 2.6 | 0.04 | 0.63 | 0.39 | 94 | 1010.5 |
| 20260903191558 | 54 | 119 | 0.0 | 1.7 | 0.02 | 0.61 | 0.37 | 95 | 1010.7 |
| 20260903190104 | 54 | 111 | 0.0 | 2.6 | 0.02 | 0.60 | 0.36 | 95 | 1010.7 |
| 20260903184606 | 54 | 211 | 0.0 | 1.7 | 0.02 | 0.64 | 0.36 | 95 | 1010.7 |
| 20260903183051 | 53 | 0 | 0.9 | 5.2 | 0.01 | 0.63 | 0.35 | 93 | 1011.0 |
| 20260903181558 | 54 | 149 | 1.7 | 3.5 | 0.01 | 0.63 | 0.35 | 93 | 1010.6 |
| 20260903180100 | 55 | 0 | 0.0 | 3.5 | 0.00 | 0.62 | 0.34 | 94 | 1010.6 |
| 20260903174554 | 55 | 177 | 1.7 | 2.6 | 0.00 | 0.66 | 0.34 | 93 | 1010.7 |
| 20260903173050 | 56 | 0 | 0.0 | 2.6 | 0.01 | 0.66 | 0.34 | 93 | 1010.4 |
| 20260903171603 | 56 | 29 | 0.9 | 2.6 | 0.01 | 0.66 | 0.34 | 96 | 1010.5 |
| 20260903170050 | 55 | 137 | 0.9 | 1.7 | 0.02 | 0.66 | 0.34 | 95 | 1010.6 |
| 20260903164606 | 55 | 136 | 0.0 | 1.7 | 0.03 | 0.70 | 0.34 | 96 | 1010.6 |
| 20260903163055 | 55 | 0 | 0.9 | 3.5 | 0.03 | 0.69 | 0.33 | 96 | 1010.5 |
| 20260903161555 | 55 | 0 | 0.0 | 4.3 | 0.05 | 0.69 | 0.33 | 96 | 1010.4 |
| 20260903160106 | 55 | 0 | 0.0 | 1.7 | 0.05 | 0.68 | 0.32 | 96 | 1010.3 |
| 20260903154600 | 54 | 0 | 0.9 | 3.5 | 0.06 | 0.69 | 0.31 | 96 | 1010.4 |
| 20260903153101 | 54 | 65 | 0.0 | 1.7 | 0.06 | 0.68 | 0.30 | 96 | 1010.3 |
| 20260903151553 | 54 | 65 | 0.0 | 0.9 | 0.06 | 0.66 | 0.28 | 96 | 1010.3 |
| 20260903150058 | 54 | 0 | 0.0 | 0.9 | 0.06 | 0.65 | 0.27 | 96 | 1010.1 |
| 20260903144553 | 54 | 65 | 0.9 | 1.7 | 0.05 | 0.64 | 0.25 | 96 | 1010.0 |
| 20260903143107 | 54 | 65 | 0.0 | 1.7 | 0.06 | 0.63 | 0.24 | 96 | 1010.0 |
| 20260903141552 | 54 | 0 | 0.0 | 0.0 | 0.06 | 0.61 | 0.22 | 96 | 1010.0 |
| 20260903140050 | 53 | 0 | 0.0 | 1.7 | 0.07 | 0.60 | 0.21 | 96 | 1009.8 |
| 20260903134601 | 54 | 0 | 0.0 | 1.7 | 0.08 | 0.58 | 0.20 | 96 | 1009.7 |
| 20260903133107 | 53 | 78 | 0.9 | 3.5 | 0.08 | 0.57 | 0.18 | 96 | 1009.6 |
| 20260903131551 | 54 | 98 | 0.9 | 5.2 | 0.07 | 0.55 | 0.16 | 95 | 1009.6 |
| 20260903130112 | 54 | 98 | 0.0 | 1.7 | 0.06 | 0.52 | 0.14 | 95 | 1009.6 |
| 20260903124605 | 54 | 85 | 0.0 | 1.7 | 0.05 | 0.51 | 0.12 | 95 | 1009.6 |
| 20260903123051 | 54 | 76 | 0.9 | 2.6 | 0.05 | 0.49 | 0.10 | 95 | 1009.6 |
| 20260903121549 | 54 | 0 | 0.0 | 0.9 | 0.04 | 0.48 | 0.09 | 95 | 1009.8 |
| 20260903120051 | 54 | 0 | 0.0 | 0.9 | 0.04 | 0.47 | 0.08 | 95 | 1009.6 |
| 20260903114554 | 54 | 0 | 0.0 | 1.7 | 0.03 | 0.46 | 0.07 | 95 | 1009.7 |
| 20260903113049 | 54 | 0 | 0.0 | 0.9 | 0.02 | 0.44 | 0.05 | 95 | 1009.7 |
| 20260903111548 | 54 | 0 | 0.0 | 1.7 | 0.02 | 0.44 | 0.05 | 95 | 1009.7 |
| 20260903110054 | 54 | 236 | 0.0 | 1.7 | 0.02 | 0.43 | 0.04 | 95 | 1009.6 |
| 20260903104552 | 54 | 0 | 0.0 | 1.7 | 0.02 | 0.43 | 0.04 | 95 | 1009.6 |
| 20260903103055 | 54 | 0 | 0.0 | 0.0 | 0.01 | 0.42 | 0.03 | 95 | 1009.6 |
| 20260903101554 | 54 | 0 | 0.0 | 4.3 | 0.01 | 0.42 | 0.03 | 95 | 1009.7 |
| 20260903100100 | 54 | 0 | 0.0 | 0.9 | 0.00 | 0.41 | 0.02 | 95 | 1009.7 |
| 20260903094606 | 54 | 69 | 0.0 | 1.7 | 0.01 | 0.41 | 0.02 | 95 | 1009.6 |
| 20260903093052 | 54 | 0 | 0.0 | 1.7 | 0.01 | 0.41 | 0.02 | 95 | 1009.6 |
| 20260903091600 | 54 | 323 | 0.0 | 1.7 | 0.01 | 0.41 | 0.02 | 94 | 1009.7 |
| 20260903090105 | 54 | 0 | 0.0 | 1.7 | 0.02 | 0.41 | 0.02 | 94 | 1009.6 |
| 20260903084552 | 54 | 0 | 0.0 | 2.6 | 0.01 | 0.40 | 0.01 | 94 | 1009.8 |
| 20260903083114 | 54 | 0 | 0.0 | 0.9 | 0.01 | 0.40 | 0.01 | 94 | 1009.9 |
| 20260903081620 | 54 | 0 | 0.0 | 1.7 | 0.01 | 0.40 | 0.01 | 94 | 1009.9 |
| 20260903080100 | 54 | 0 | 0.0 | 1.7 | 0.00 | 0.39 | 0.00 | 94 | 1009.9 |
| 20260903074602 | 54 | 0 | 0.0 | 4.3 | 0.00 | 0.39 | 0.00 | 93 | 1010.0 |
| 20260903073103 | 54 | 165 | 1.7 | 7.0 | 0.00 | 0.39 | 0.00 | 93 | 1010.0 |
| 20260903071617 | 54 | 0 | 0.0 | 3.5 | 0.00 | 0.39 | 0.00 | 94 | 1010.0 |
| 20260903070050 | 54 | 163 | 0.0 | 1.7 | 0.00 | 0.39 | 0.00 | 95 | 1009.8 |
| 20260903064559 | 53 | 0 | 0.0 | 0.0 | 0.00 | 0.39 | 0.39 | 95 | 1009.9 |
| 20260903063059 | 53 | 0 | 0.0 | 0.0 | 0.00 | 0.39 | 0.39 | 95 | 1009.8 |